TimeCDT,TemperatureF,Dew PointF,Humidity,Sea Level PressureIn,VisibilityMPH,Wind Direction,Wind SpeedMPH,Gust SpeedMPH,PrecipitationIn,Events,Conditions,WindDirDegrees,DateUTC
12:13 AM,48.2,46.4,93,30.05,4.0,Calm,Calm,-,N/A,,Clear,0,2013-05-09 05:13:00
12:33 AM,48.2,46.4,93,30.05,10.0,NNE,3.5,-,N/A,,Clear,20,2013-05-09 05:33:00
12:52 AM,46.4,46.4,100,30.05,10.0,Calm,Calm,-,N/A,,Clear,0,2013-05-09 05:52:00
1:13 AM,46.4,44.6,93,30.05,10.0,NE,3.5,-,N/A,,Clear,40,2013-05-09 06:13:00
1:33 AM,46.4,44.6,93,30.06,10.0,NNE,4.6,-,N/A,,Clear,30,2013-05-09 06:33:00
1:52 AM,44.6,42.8,93,30.06,10.0,NNE,5.8,-,N/A,,Clear,30,2013-05-09 06:52:00
2:13 AM,42.8,41.0,93,30.07,10.0,NNE,4.6,-,N/A,,Clear,30,2013-05-09 07:13:00
2:33 AM,42.8,41.0,93,30.07,10.0,NNE,3.5,-,N/A,,Clear,30,2013-05-09 07:33:00
2:52 AM,42.8,39.2,87,30.07,10.0,Calm,Calm,-,N/A,,Clear,0,2013-05-09 07:52:00
3:13 AM,42.8,39.2,87,30.07,10.0,NE,5.8,-,N/A,,Mostly Cloudy,50,2013-05-09 08:13:00
3:33 AM,42.8,39.2,87,30.07,10.0,NNE,3.5,-,N/A,,Overcast,30,2013-05-09 08:33:00
3:52 AM,41.0,37.4,87,30.07,10.0,NNE,5.8,-,N/A,,Overcast,30,2013-05-09 08:52:00
4:13 AM,41.0,37.4,87,30.07,10.0,NNE,5.8,-,N/A,,Overcast,30,2013-05-09 09:13:00
4:32 AM,39.2,35.6,87,30.08,10.0,NNE,4.6,-,N/A,,Overcast,20,2013-05-09 09:32:00
4:53 AM,39.2,35.6,87,30.09,10.0,NNE,5.8,-,N/A,,Overcast,30,2013-05-09 09:53:00
5:13 AM,39.2,35.6,87,30.09,10.0,NE,4.6,-,N/A,,Overcast,40,2013-05-09 10:13:00
5:32 AM,39.2,35.6,87,30.10,10.0,NNE,4.6,-,N/A,,Overcast,30,2013-05-09 10:32:00
5:53 AM,39.2,33.8,81,30.11,10.0,NNE,5.8,-,N/A,,Overcast,30,2013-05-09 10:53:00
6:13 AM,39.2,33.8,81,30.12,10.0,NE,5.8,-,N/A,,Overcast,40,2013-05-09 11:13:00
6:33 AM,39.2,33.8,81,30.13,10.0,Calm,Calm,-,N/A,,Overcast,0,2013-05-09 11:33:00
6:52 AM,39.2,33.8,81,30.13,10.0,NE,4.6,-,N/A,,Overcast,50,2013-05-09 11:52:00
7:13 AM,39.2,35.6,87,30.14,10.0,NE,4.6,-,N/A,,Overcast,40,2013-05-09 12:13:00
7:33 AM,39.2,33.8,81,30.15,10.0,NNE,4.6,-,N/A,,Overcast,30,2013-05-09 12:33:00
7:52 AM,39.2,33.8,81,30.15,10.0,NNE,4.6,-,N/A,,Overcast,30,2013-05-09 12:52:00
8:13 AM,37.4,35.6,93,30.16,3.0,NNE,6.9,-,N/A,,Overcast,30,2013-05-09 13:13:00
8:33 AM,37.4,37.4,100,30.16,2.0,NNE,5.8,-,N/A,,Overcast,20,2013-05-09 13:33:00
8:53 AM,39.2,37.4,93,30.17,2.5,NE,5.8,-,N/A,Rain,Light Rain,40,2013-05-09 13:53:00
9:13 AM,39.2,37.4,93,30.17,2.0,NE,4.6,-,N/A,,Light Drizzle,40,2013-05-09 14:13:00
9:33 AM,39.2,37.4,93,30.17,2.5,NE,4.6,-,N/A,,Light Drizzle,40,2013-05-09 14:33:00
9:52 AM,39.2,37.4,93,30.18,2.5,NE,6.9,-,N/A,,Overcast,40,2013-05-09 14:52:00
10:13 AM,39.2,37.4,93,30.19,10.0,NNE,4.6,-,N/A,,Overcast,30,2013-05-09 15:13:00
10:32 AM,39.2,37.4,93,30.19,10.0,NE,3.5,-,N/A,,Overcast,40,2013-05-09 15:32:00
10:53 AM,39.2,37.4,93,30.19,10.0,NNE,5.8,-,N/A,,Overcast,20,2013-05-09 15:53:00
11:13 AM,41.0,35.6,81,30.19,10.0,NNE,6.9,-,N/A,,Overcast,20,2013-05-09 16:13:00
11:32 AM,42.8,35.6,76,30.19,10.0,NE,8.1,-,N/A,,Overcast,40,2013-05-09 16:32:00
11:53 AM,44.6,33.8,66,30.20,10.0,NE,10.4,-,N/A,,Overcast,50,2013-05-09 16:53:00
12:13 PM,44.6,32.0,61,30.20,10.0,NE,6.9,-,N/A,,Overcast,50,2013-05-09 17:13:00
12:33 PM,44.6,30.2,57,30.20,10.0,ENE,10.4,-,N/A,,Overcast,60,2013-05-09 17:33:00
12:53 PM,48.2,30.2,50,30.19,10.0,NE,9.2,-,N/A,,Overcast,40,2013-05-09 17:53:00
1:12 PM,50.0,30.2,47,30.19,10.0,North,5.8,-,N/A,,Mostly Cloudy,10,2013-05-09 18:12:00
1:33 PM,50.0,30.2,47,30.18,10.0,NNE,4.6,-,N/A,,Scattered Clouds,20,2013-05-09 18:33:00
1:52 PM,51.8,28.4,41,30.18,10.0,NNE,8.1,-,N/A,,Clear,30,2013-05-09 18:52:00
2:13 PM,53.6,26.6,35,30.18,10.0,NNE,5.8,-,N/A,,Clear,20,2013-05-09 19:13:00
2:33 PM,53.6,23.0,30,30.17,10.0,NNE,9.2,-,N/A,,Clear,30,2013-05-09 19:33:00
2:52 PM,53.6,24.8,33,30.17,10.0,NNE,10.4,-,N/A,,Clear,20,2013-05-09 19:52:00
3:13 PM,53.6,21.2,28,30.17,10.0,NNE,10.4,-,N/A,,Clear,30,2013-05-09 20:13:00
3:33 PM,55.4,19.4,25,30.16,10.0,NNE,10.4,-,N/A,,Clear,20,2013-05-09 20:33:00
3:53 PM,55.4,19.4,25,30.16,10.0,North,8.1,16.1,N/A,,Clear,10,2013-05-09 20:53:00
4:13 PM,55.4,17.6,23,30.16,10.0,NNE,6.9,-,N/A,,Clear,20,2013-05-09 21:13:00
4:32 PM,55.4,17.6,23,30.15,10.0,NNE,8.1,-,N/A,,Clear,30,2013-05-09 21:32:00
4:53 PM,55.4,19.4,25,30.15,10.0,NNE,9.2,17.3,N/A,,Clear,20,2013-05-09 21:53:00
5:13 PM,55.4,19.4,25,30.15,10.0,NNE,6.9,-,N/A,,Clear,30,2013-05-09 22:13:00
5:32 PM,55.4,21.2,26,30.14,10.0,NNE,8.1,-,N/A,,Clear,30,2013-05-09 22:32:00
5:53 PM,55.4,21.2,26,30.15,10.0,NNE,8.1,16.1,N/A,,Clear,20,2013-05-09 22:53:00
6:13 PM,53.6,21.2,28,30.14,10.0,NNE,6.9,-,N/A,,Clear,20,2013-05-09 23:13:00
6:32 PM,53.6,21.2,28,30.15,10.0,NNE,6.9,-,N/A,,Clear,20,2013-05-09 23:32:00
6:53 PM,53.6,21.2,28,30.15,10.0,NNE,5.8,-,N/A,,Clear,30,2013-05-09 23:53:00
7:13 PM,53.6,21.2,28,30.15,10.0,NNE,8.1,-,N/A,,Clear,30,2013-05-10 00:13:00
7:29 PM,53.6,21.2,28,30.15,10.0,NE,5.8,-,N/A,,Clear,50,2013-05-10 00:29:00
7:52 PM,51.8,21.2,30,30.16,10.0,NE,5.8,-,N/A,,Clear,50,2013-05-10 00:52:00
8:13 PM,51.8,21.2,30,30.16,10.0,ENE,6.9,-,N/A,,Clear,60,2013-05-10 01:13:00
8:33 PM,46.4,26.6,46,30.17,10.0,SE,6.9,-,N/A,,Clear,130,2013-05-10 01:33:00
8:52 PM,44.6,28.4,53,30.18,10.0,SE,6.9,-,N/A,,Clear,140,2013-05-10 01:52:00
9:13 PM,42.8,26.6,53,30.19,10.0,SSE,5.8,-,N/A,,Clear,160,2013-05-10 02:13:00
9:33 PM,41.0,26.6,57,30.21,10.0,SSE,3.5,-,N/A,,Clear,150,2013-05-10 02:33:00
9:52 PM,39.2,26.6,61,30.21,10.0,SSE,4.6,-,N/A,,Clear,150,2013-05-10 02:52:00
10:13 PM,37.4,26.6,65,30.21,10.0,Calm,Calm,-,N/A,,Clear,0,2013-05-10 03:13:00
10:33 PM,37.4,24.8,60,30.21,10.0,Calm,Calm,-,N/A,,Clear,0,2013-05-10 03:33:00
10:52 PM,35.6,26.6,70,30.21,10.0,Calm,Calm,-,N/A,,Clear,0,2013-05-10 03:52:00
11:13 PM,32.0,26.6,80,30.21,10.0,Calm,Calm,-,N/A,,Clear,0,2013-05-10 04:13:00
11:33 PM,32.0,26.6,80,30.22,10.0,Calm,Calm,-,N/A,,Clear,0,2013-05-10 04:33:00
11:52 PM,30.2,26.6,86,30.21,10.0,Calm,Calm,-,N/A,,Clear,0,2013-05-10 04:52:00